Location: Blazny
(46.0612°N, 84.4033°W)
Time: 00:23:59
(UTC-04:00)

BlueWalker 3 - Visible Passes

Search period start: 15 September 2024 00:00
Search period end: 25 September 2024 00:00
Orbit: 475 x 487 km, 53.2° (Epoch: 14 September)

Date Brightness Start Highest point End Pass type
(mag) Time Alt. Az. Time Alt. Az. Time Alt. Az.
16 Sep 4.8 21:05:18 10° WSW 21:06:20 11° SW 21:07:21 10° SW visible
17 Sep 4.7 20:37:11 10° WSW 20:38:44 12° SW 20:40:19 10° SSW visible
18 Sep 4.7 20:09:11 10° W 20:11:07 14° SW 20:13:03 10° SSW visible
